,,Stat6,,Stat2,,Stat8,,Stat9,,Stat10,,Wind1,,Wind1,
time,status,PA1M_AVG,status,PR1M_SUM,status,RH1M_AVG,status,SR1M_AVG,status,TA1M_AVG,status,W1dAve1m,status,W1sAve1m,
2005-05-20, 00:00:00,VALID,917.701,VALID,0,VALID,100,VALID,-0.101885,VALID,20.3818,VALID,164,VALID,0.251065,
2005-05-20, 00:01:00,VALID,917.713,VALID,0,VALID,100,VALID,-0.101885,VALID,20.3818,VALID,136,VALID,0.520712,
2005-05-20, 00:02:00,VALID,917.714,VALID,0,VALID,100,VALID,-0.0849042,VALID,20.363,VALID,86,VALID,0.401953,
2005-05-20, 00:03:00,VALID,917.694,VALID,0,VALID,100,VALID,-0.101885,VALID,20.3207,VALID,70,VALID,0.690407,
2005-05-20, 00:04:00,VALID,917.686,VALID,0,VALID,100,VALID,-0.101885,VALID,20.2591,VALID,73,VALID,0.700107,
2005-05-20, 00:05:00,VALID,917.692,VALID,0,VALID,100,VALID,-0.101885,VALID,20.2467,VALID,65,VALID,0.579545,
2005-05-20, 00:06:00,VALID,917.687,VALID,0,VALID,100,VALID,-0.0509425,VALID,20.2494,VALID,84,VALID,0.756541,
2005-05-20, 00:07:00,VALID,917.686,VALID,0,VALID,100,VALID,0,VALID,20.2611,VALID,93,VALID,0.645389,
2005-05-20, 00:08:00,VALID,917.675,VALID,0,VALID,100,VALID,0,VALID,20.2842,VALID,84,VALID,0.427871,
2005-05-20, 00:09:00,VALID,917.642,VALID,0,VALID,100,VALID,0,VALID,20.2936,VALID,85,VALID,0.494191,
2005-05-20, 00:10:00,VALID,917.612,VALID,0,VALID,100,VALID,0,VALID,20.2998,VALID,80,VALID,0.756055,
2005-05-20, 00:11:00,VALID,917.594,VALID,0,VALID,100,VALID,0,VALID,20.3098,VALID,72,VALID,0.62173,
2005-05-20, 00:12:00,VALID,917.562,VALID,0,VALID,100,VALID,-0.0169808,VALID,20.3001,VALID,63,VALID,0.780506,
2005-05-20, 00:13:00,VALID,917.563,VALID,0,VALID,100,VALID,0,VALID,20.3135,VALID,80,VALID,0.596839,
2005-05-20, 00:14:00,VALID,917.556,VALID,0,VALID,100,VALID,0,VALID,20.2909,VALID,98,VALID,1.10709,
2005-05-20, 00:15:00,VALID,917.562,VALID,0,VALID,100,VALID,0.0169808,VALID,20.2745,VALID,99,VALID,1.18445,
2005-05-20, 00:16:00,VALID,917.558,VALID,0,VALID,100,VALID,0,VALID,20.2554,VALID,80,VALID,0.823361,
2005-05-20, 00:17:00,VALID,917.548,VALID,0,VALID,100,VALID,0.0169808,VALID,20.2454,VALID,75,VALID,0.336128,
2005-05-20, 00:18:00,VALID,917.522,VALID,0,VALID,100,VALID,0,VALID,20.2549,VALID,102,VALID,0.718369,
2005-05-20, 00:19:00,VALID,917.509,VALID,0,VALID,100,VALID,0,VALID,20.2546,VALID,120,VALID,0.892721,
2005-05-20, 00:20:00,VALID,917.479,VALID,0,VALID,100,VALID,0.0169808,VALID,20.2611,VALID,116,VALID,0.869048,
2005-05-20, 00:21:00,VALID,917.443,VALID,0,VALID,100,VALID,-0.0169808,VALID,20.2613,VALID,145,VALID,0.897195,
2005-05-20, 00:22:00,VALID,917.4,VALID,0,VALID,100,VALID,-0.0339617,VALID,20.2524,VALID,140,VALID,1.36246,
2005-05-20, 00:23:00,VALID,917.394,VALID,0,VALID,100,VALID,-0.0509425,VALID,20.236,VALID,147,VALID,1.67746,
2005-05-20, 00:24:00,VALID,917.363,VALID,0,VALID,100,VALID,-0.0509425,VALID,20.2368,VALID,129,VALID,2.10633,
2005-05-20, 00:25:00,VALID,917.357,VALID,0,VALID,100,VALID,-0.0509425,VALID,20.2166,VALID,155,VALID,1.02907,
2005-05-20, 00:26:00,VALID,917.347,VALID,0,VALID,100,VALID,-0.0679233,VALID,20.2303,VALID,126,VALID,1.0645,
2005-05-20, 00:27:00,VALID,917.336,VALID,0,VALID,100,VALID,-0.0849042,VALID,20.2077,VALID,131,VALID,1.38368,
2005-05-20, 00:28:00,VALID,917.322,VALID,0,VALID,100,VALID,-0.0509425,VALID,20.1916,VALID,137,VALID,1.30983,
2005-05-20, 00:29:00,VALID,917.305,VALID,0,VALID,100,VALID,-0.0849042,VALID,20.1789,VALID,147,VALID,0.958333,
2005-05-20, 00:30:00,VALID,917.282,VALID,0,VALID,100,VALID,-0.0849042,VALID,20.1792,VALID,122,VALID,0.587081,
2005-05-20, 00:31:00,VALID,917.267,VALID,0,VALID,100,VALID,-0.0509425,VALID,20.156,VALID,137,VALID,0.87221,
2005-05-20, 00:32:00,VALID,917.26,VALID,0,VALID,100,VALID,-0.101885,VALID,20.1434,VALID,143,VALID,0.758903,
2005-05-20, 00:33:00,VALID,917.245,VALID,0,VALID,100,VALID,-0.0679233,VALID,20.1237,VALID,136,VALID,0.819754,
2005-05-20, 00:34:00,VALID,917.244,VALID,0,VALID,100,VALID,-0.0849042,VALID,20.1071,VALID,147,VALID,0.537153,
2005-05-20, 00:35:00,VALID,917.225,VALID,0,VALID,100,VALID,-0.0679233,VALID,20.0887,VALID,134,VALID,1.06955,
2005-05-20, 00:36:00,VALID,917.218,VALID,0,VALID,100,VALID,-0.0509425,VALID,20.0688,VALID,144,VALID,0.928838,
2005-05-20, 00:37:00,VALID,917.195,VALID,0,VALID,100,VALID,-0.0679233,VALID,20.0527,VALID,146,VALID,0.67081,
2005-05-20, 00:38:00,VALID,917.182,VALID,0,VALID,100,VALID,-0.0509425,VALID,20.0398,VALID,153,VALID,0.738104,
2005-05-20, 00:39:00,VALID,917.149,VALID,0,VALID,100,VALID,-0.0679233,VALID,20.0368,VALID,108,VALID,0.975497,
2005-05-20, 00:40:00,VALID,917.154,VALID,0,VALID,100,VALID,-0.0679233,VALID,20.0102,VALID,92,VALID,0.35404,
2005-05-20, 00:41:00,VALID,917.147,VALID,0,VALID,100,VALID,-0.0679233,VALID,20.0038,VALID,111,VALID,0.895419,
2005-05-20, 00:42:00,VALID,917.141,VALID,0,VALID,100,VALID,-0.0339617,VALID,19.9981,VALID,67,VALID,0.278343,
2005-05-20, 00:43:00,VALID,917.132,VALID,0,VALID,100,VALID,-0.0509425,VALID,19.9884,VALID,67,VALID,0.15516,
2005-05-20, 00:44:00,VALID,917.127,VALID,0,VALID,100,VALID,-0.0509425,VALID,19.969,VALID,67,VALID,0.22061,
2005-05-20, 00:45:00,VALID,917.109,VALID,0,VALID,100,VALID,-0.0849042,VALID,19.9596,VALID,67,VALID,0.210565,
2005-05-20, 00:46:00,VALID,917.096,VALID,0,VALID,100,VALID,-0.0339617,VALID,19.9332,VALID,86,VALID,0.466844,
2005-05-20, 00:47:00,VALID,917.078,VALID,0,VALID,100,VALID,-0.101885,VALID,19.9208,VALID,72,VALID,0.564317,
2005-05-20, 00:48:00,VALID,917.057,VALID,0,VALID,100,VALID,-0.0339617,VALID,19.8883,VALID,53,VALID,0.637195,
2005-05-20, 00:49:00,VALID,917.037,VALID,0,VALID,100,VALID,-0.0849042,VALID,19.8657,VALID,53,VALID,0.522821,
2005-05-20, 00:50:00,VALID,917.023,VALID,0,VALID,100,VALID,-0.0849042,VALID,19.8495,VALID,53,VALID,0.316679,
2005-05-20, 00:51:00,VALID,917.003,VALID,0,VALID,100,VALID,-0.0169808,VALID,19.8296,VALID,53,VALID,0.42223,
2005-05-20, 00:52:00,VALID,916.984,VALID,0,VALID,100,VALID,0.0169808,VALID,19.8254,VALID,53,VALID,0.330412,
2005-05-20, 00:53:00,VALID,916.969,VALID,0,VALID,100,VALID,0.0509425,VALID,19.809,VALID,53,VALID,0.526344,
2005-05-20, 00:54:00,VALID,916.96,VALID,0,VALID,100,VALID,0.0509425,VALID,19.7929,VALID,53,VALID,0.639382,
2005-05-20, 00:55:00,VALID,916.955,VALID,0,VALID,100,VALID,0.0339617,VALID,19.7673,VALID,64,VALID,0.75279,
2005-05-20, 00:56:00,VALID,916.933,VALID,0,VALID,100,VALID,0.0339617,VALID,19.7869,VALID,73,VALID,0.764509,
2005-05-20, 00:57:00,VALID,916.924,VALID,0,VALID,100,VALID,0.0169808,VALID,19.7805,VALID,70,VALID,0.590216,
2005-05-20, 00:58:00,VALID,916.894,VALID,0,VALID,100,VALID,0.0339617,VALID,19.7772,VALID,68,VALID,0.604469,
2005-05-20, 00:59:00,VALID,916.873,VALID,0,VALID,100,VALID,0.0339617,VALID,19.7708,VALID,72,VALID,0.742733,
2005-05-20, 01:00:00,VALID,916.861,VALID,0,VALID,100,VALID,0.0169808,VALID,19.7872,VALID,67,VALID,0.982955,
2005-05-20, 01:01:00,VALID,916.828,VALID,0,VALID,100,VALID,0.0509425,VALID,19.7864,VALID,74,VALID,0.965661,
2005-05-20, 01:02:00,VALID,916.802,VALID,0,VALID,100,VALID,0.0169808,VALID,19.8001,VALID,59,VALID,1.27752,
2005-05-20, 01:03:00,VALID,916.784,VALID,0,VALID,100,VALID,0,VALID,19.7939,VALID,54,VALID,1.15122,
2005-05-20, 01:04:00,VALID,916.76,VALID,0,VALID,100,VALID,0.0169808,VALID,19.774,VALID,55,VALID,1.02024,
2005-05-20, 01:05:00,VALID,916.738,VALID,0,VALID,100,VALID,0.0169808,VALID,19.7839,VALID,50,VALID,1.03161,
2005-05-20, 01:06:00,VALID,916.713,VALID,0,VALID,100,VALID,0,VALID,19.7777,VALID,43,VALID,0.862926,
2005-05-20, 01:07:00,VALID,916.69,VALID,0,VALID,100,VALID,0.0169808,VALID,19.7608,VALID,44,VALID,0.753711,
2005-05-20, 01:08:00,VALID,916.662,VALID,0,VALID,100,VALID,0.0679233,VALID,19.7611,VALID,46,VALID,0.531436,
2005-05-20, 01:09:00,VALID,916.64,VALID,0,VALID,100,VALID,0.0679233,VALID,19.7519,VALID,46,VALID,0.129179,
2005-05-20, 01:10:00,VALID,916.606,VALID,0,VALID,100,VALID,-0.0849042,VALID,19.74,VALID,42,VALID,0.22311,
2005-05-20, 01:11:00,VALID,916.575,VALID,0,VALID,100,VALID,-0.0339617,VALID,19.7204,VALID,32,VALID,0.399796,
2005-05-20, 01:12:00,VALID,916.55,VALID,0,VALID,100,VALID,-0.0679233,VALID,19.7174,VALID,32,VALID,0.311285,
2005-05-20, 01:13:00,VALID,916.531,VALID,0,VALID,100,VALID,-0.0169808,VALID,19.7107,VALID,32,VALID,0.16373,
2005-05-20, 01:14:00,VALID,916.501,VALID,0,VALID,100,VALID,-0.0679233,VALID,19.7141,VALID,32,VALID,0.151972,
2005-05-20, 01:15:00,VALID,916.481,VALID,0,VALID,100,VALID,-0.0339617,VALID,19.7074,VALID,32,VALID,0.261052,
2005-05-20, 01:16:00,VALID,916.484,VALID,0,VALID,100,VALID,-0.0679233,VALID,19.7139,VALID,37,VALID,0.650915,
2005-05-20, 01:17:00,VALID,916.484,VALID,0,VALID,100,VALID,-0.0849042,VALID,19.7303,VALID,69,VALID,0.820685,
2005-05-20, 01:18:00,VALID,916.502,VALID,0,VALID,100,VALID,-0.0679233,VALID,19.7405,VALID,85,VALID,0.823661,
2005-05-20, 01:19:00,VALID,916.503,VALID,0,VALID,100,VALID,-0.0679233,VALID,19.7141,VALID,86,VALID,0.722561,
2005-05-20, 01:20:00,VALID,916.505,VALID,0,VALID,100,VALID,-0.0679233,VALID,19.6724,VALID,76,VALID,0.626698,
2005-05-20, 01:21:00,VALID,916.488,VALID,0,VALID,100,VALID,-0.0509425,VALID,19.6143,VALID,69,VALID,0.812686,
2005-05-20, 01:22:00,VALID,916.483,VALID,0,VALID,100,VALID,-0.0849042,VALID,19.6106,VALID,86,VALID,0.737827,
2005-05-20, 01:23:00,VALID,916.462,VALID,0,VALID,100,VALID,-0.0679233,VALID,19.6275,VALID,72,VALID,0.505632,
2005-05-20, 01:24:00,VALID,916.436,VALID,0,VALID,100,VALID,-0.0509425,VALID,19.6178,VALID,74,VALID,0.542361,
2005-05-20, 01:25:00,VALID,916.417,VALID,0,VALID,100,VALID,-0.0679233,VALID,19.6011,VALID,89,VALID,0.682594,
2005-05-20, 01:26:00,VALID,916.393,VALID,0,VALID,100,VALID,-0.0679233,VALID,19.6183,VALID,112,VALID,0.916016,
2005-05-20, 01:27:00,VALID,916.408,VALID,0,VALID,100,VALID,-0.0679233,VALID,19.6148,VALID,123,VALID,0.85831,
2005-05-20, 01:28:00,VALID,916.387,VALID,0,VALID,100,VALID,-0.0849042,VALID,19.621,VALID,137,VALID,1.16369,
2005-05-20, 01:29:00,VALID,916.38,VALID,0,VALID,100,VALID,-0.0679233,VALID,19.6178,VALID,133,VALID,0.818859,
2005-05-20, 01:30:00,VALID,916.367,VALID,0,VALID,100,VALID,-0.0509425,VALID,19.6406,VALID,125,VALID,0.821801,
2005-05-20, 01:31:00,VALID,916.36,VALID,0,VALID,100,VALID,-0.0509425,VALID,19.6307,VALID,109,VALID,1.05692,
2005-05-20, 01:32:00,VALID,916.345,VALID,0,VALID,100,VALID,-0.0679233,VALID,19.6173,VALID,117,VALID,0.767078,
2005-05-20, 01:33:00,VALID,916.335,VALID,0,VALID,100,VALID,-0.0849042,VALID,19.614,VALID,109,VALID,0.968369,
2005-05-20, 01:34:00,VALID,916.326,VALID,0,VALID,100,VALID,-0.0679233,VALID,19.5979,VALID,98,VALID,0.693714,
2005-05-20, 01:35:00,VALID,916.331,VALID,0,VALID,100,VALID,-0.0339617,VALID,19.5751,VALID,106,VALID,1.12835,
2005-05-20, 01:36:00,VALID,916.331,VALID,0,VALID,100,VALID,-0.0339617,VALID,19.5656,VALID,109,VALID,0.884811,
2005-05-20, 01:37:00,VALID,916.337,VALID,0,VALID,100,VALID,0.0679233,VALID,19.545,VALID,115,VALID,0.652734,
2005-05-20, 01:38:00,VALID,916.335,VALID,0,VALID,100,VALID,0.0339617,VALID,19.5259,VALID,131,VALID,0.772166,
2005-05-20, 01:39:00,VALID,916.335,VALID,0,VALID,100,VALID,0.0169808,VALID,19.5291,VALID,128,VALID,1.21858,
2005-05-20, 01:40:00,VALID,916.336,VALID,0,VALID,100,VALID,0.0679233,VALID,19.5358,VALID,127,VALID,1.19404,
2005-05-20, 01:41:00,VALID,916.302,VALID,0,VALID,100,VALID,0.0169808,VALID,19.5453,VALID,130,VALID,1.13263,
2005-05-20, 01:42:00,VALID,916.282,VALID,0,VALID,100,VALID,0.0509425,VALID,19.5415,VALID,133,VALID,1.02548,
2005-05-20, 01:43:00,VALID,916.251,VALID,0,VALID,100,VALID,0.0169808,VALID,19.545,VALID,134,VALID,1.39043,
2005-05-20, 01:44:00,VALID,916.244,VALID,0,VALID,100,VALID,0.0509425,VALID,19.5321,VALID,135,VALID,1.00056,
2005-05-20, 01:45:00,VALID,916.237,VALID,0,VALID,100,VALID,0.0509425,VALID,19.5425,VALID,135,VALID,0.940225,
2005-05-20, 01:46:00,VALID,916.236,VALID,0,VALID,100,VALID,0.0339617,VALID,19.5425,VALID,142,VALID,0.907703,
2005-05-20, 01:47:00,VALID,916.244,VALID,0,VALID,100,VALID,0.0679233,VALID,19.5256,VALID,140,VALID,1.37441,
2005-05-20, 01:48:00,VALID,916.264,VALID,0,VALID,100,VALID,0.0849042,VALID,19.5224,VALID,143,VALID,1.03835,
2005-05-20, 01:49:00,VALID,916.264,VALID,0,VALID,100,VALID,0.0169808,VALID,19.503,VALID,131,VALID,1.30822,
2005-05-20, 01:50:00,VALID,916.27,VALID,0,VALID,100,VALID,0.0169808,VALID,19.5001,VALID,138,VALID,1.30562,
2005-05-20, 01:51:00,VALID,916.262,VALID,0,VALID,100,VALID,0,VALID,19.4971,VALID,125,VALID,1.39639,
2005-05-20, 01:52:00,VALID,916.242,VALID,0,VALID,100,VALID,0.0339617,VALID,19.474,VALID,128,VALID,1.3311,
2005-05-20, 01:53:00,VALID,916.223,VALID,0,VALID,100,VALID,0.0339617,VALID,19.4747,VALID,128,VALID,1.18501,
2005-05-20, 01:54:00,VALID,916.218,VALID,0,VALID,100,VALID,0.0169808,VALID,19.462,VALID,127,VALID,0.851935,
2005-05-20, 01:55:00,VALID,916.185,VALID,0,VALID,100,VALID,0,VALID,19.4491,VALID,125,VALID,1.24514,
2005-05-20, 01:56:00,VALID,916.18,VALID,0,VALID,100,VALID,0.0509425,VALID,19.4454,VALID,119,VALID,0.907203,
2005-05-20, 01:57:00,VALID,916.187,VALID,0,VALID,100,VALID,0.0339617,VALID,19.4491,VALID,143,VALID,0.958984,
2005-05-20, 01:58:00,VALID,916.183,VALID,0,VALID,100,VALID,0.0339617,VALID,19.4387,VALID,153,VALID,1.07485,
2005-05-20, 01:59:00,VALID,916.18,VALID,0,VALID,100,VALID,0.0339617,VALID,19.429,VALID,152,VALID,1.15443,
2005-05-20, 02:00:00,VALID,916.177,VALID,0,VALID,100,VALID,0.0169808,VALID,19.4263,VALID,157,VALID,1.58828,
2005-05-20, 02:01:00,VALID,916.171,VALID,0,VALID,100,VALID,0.0679233,VALID,19.4392,VALID,158,VALID,1.36222,
2005-05-20, 02:02:00,VALID,916.169,VALID,0,VALID,100,VALID,0.0169808,VALID,19.4449,VALID,167,VALID,1.14211,
2005-05-20, 02:03:00,VALID,916.149,VALID,0,VALID,100,VALID,0,VALID,19.4489,VALID,162,VALID,1.04902,
2005-05-20, 02:04:00,VALID,916.131,VALID,0,VALID,100,VALID,0,VALID,19.4524,VALID,165,VALID,0.787847,
2005-05-20, 02:05:00,VALID,916.115,VALID,0,VALID,100,VALID,0,VALID,19.4424,VALID,151,VALID,0.790334,
2005-05-20, 02:06:00,VALID,916.086,VALID,0,VALID,100,VALID,0,VALID,19.4392,VALID,160,VALID,0.708651,
2005-05-20, 02:07:00,VALID,916.086,VALID,0,VALID,100,VALID,0,VALID,19.4265,VALID,162,VALID,0.875744,
2005-05-20, 02:08:00,VALID,916.101,VALID,0,VALID,100,VALID,-0.0339617,VALID,19.4106,VALID,163,VALID,0.989139,
2005-05-20, 02:09:00,VALID,916.119,VALID,0,VALID,100,VALID,0,VALID,19.4144,VALID,159,VALID,0.700335,
2005-05-20, 02:10:00,VALID,916.138,VALID,0,VALID,100,VALID,-0.0339617,VALID,19.4009,VALID,164,VALID,0.883345,
2005-05-20, 02:11:00,VALID,916.156,VALID,0,VALID,100,VALID,-0.0339617,VALID,19.4116,VALID,160,VALID,0.68821,
2005-05-20, 02:12:00,VALID,916.16,VALID,0,VALID,100,VALID,-0.0339617,VALID,19.3985,VALID,153,VALID,0.578316,
2005-05-20, 02:13:00,VALID,916.152,VALID,0,VALID,100,VALID,-0.0169808,VALID,19.3719,VALID,148,VALID,0.513081,
2005-05-20, 02:14:00,VALID,916.155,VALID,0,VALID,100,VALID,-0.0679233,VALID,19.3629,VALID,158,VALID,0.814878,
2005-05-20, 02:15:00,VALID,916.131,VALID,0,VALID,100,VALID,-0.0339617,VALID,19.3461,VALID,142,VALID,0.699041,
2005-05-20, 02:16:00,VALID,916.104,VALID,0,VALID,100,VALID,-0.0169808,VALID,19.3431,VALID,150,VALID,0.697027,
2005-05-20, 02:17:00,VALID,916.097,VALID,0,VALID,100,VALID,-0.0169808,VALID,19.3364,VALID,150,VALID,0.733073,
2005-05-20, 02:18:00,VALID,916.107,VALID,0,VALID,100,VALID,-0.0169808,VALID,19.3495,VALID,137,VALID,0.795922,
2005-05-20, 02:19:00,VALID,916.103,VALID,0,VALID,100,VALID,-0.0169808,VALID,19.353,VALID,144,VALID,0.930078,
2005-05-20, 02:20:00,VALID,916.107,VALID,0,VALID,100,VALID,0.0169808,VALID,19.3458,VALID,146,VALID,1.14746,
2005-05-20, 02:21:00,VALID,916.105,VALID,0,VALID,100,VALID,0,VALID,19.3461,VALID,143,VALID,1.09966,
2005-05-20, 02:22:00,VALID,916.113,VALID,0,VALID,100,VALID,-0.0679233,VALID,19.3535,VALID,147,VALID,1.4013,
2005-05-20, 02:23:00,VALID,916.079,VALID,0,VALID,100,VALID,0,VALID,19.3468,VALID,148,VALID,1.43277,
2005-05-20, 02:24:00,VALID,916.067,VALID,0,VALID,100,VALID,-0.0339617,VALID,19.3532,VALID,139,VALID,1.69531,
2005-05-20, 02:25:00,VALID,916.036,VALID,0,VALID,100,VALID,-0.0169808,VALID,19.3331,VALID,129,VALID,1.59284,
2005-05-20, 02:26:00,VALID,916.004,VALID,0,VALID,100,VALID,-0.0169808,VALID,19.3361,VALID,117,VALID,1.40644,
2005-05-20, 02:27:00,VALID,915.971,VALID,0,VALID,100,VALID,-0.0339617,VALID,19.3071,VALID,124,VALID,1.4739,
2005-05-20, 02:28:00,VALID,915.942,VALID,0,VALID,100,VALID,0,VALID,19.2981,VALID,123,VALID,1.02083,
2005-05-20, 02:29:00,VALID,915.925,VALID,0,VALID,100,VALID,-0.0169808,VALID,19.282,VALID,123,VALID,1.39565,
2005-05-20, 02:30:00,VALID,915.905,VALID,0,VALID,100,VALID,-0.0169808,VALID,19.2686,VALID,130,VALID,0.925071,
2005-05-20, 02:31:00,VALID,915.891,VALID,0,VALID,100,VALID,-0.0169808,VALID,19.2561,VALID,137,VALID,1.36612,
2005-05-20, 02:32:00,VALID,915.871,VALID,0,VALID,100,VALID,-0.0509425,VALID,19.2432,VALID,133,VALID,1.41944,
2005-05-20, 02:33:00,VALID,915.858,VALID,0,VALID,100,VALID,0,VALID,19.2239,VALID,142,VALID,1.21205,
2005-05-20, 02:34:00,VALID,915.85,VALID,0,VALID,100,VALID,-0.0169808,VALID,19.2172,VALID,140,VALID,1.0259,
2005-05-20, 02:35:00,VALID,915.855,VALID,0,VALID,99.9916,VALID,-0.0169808,VALID,19.2142,VALID,138,VALID,1.20257,
2005-05-20, 02:36:00,VALID,915.849,VALID,0,VALID,99.9074,VALID,-0.0509425,VALID,19.1948,VALID,139,VALID,1.60047,
2005-05-20, 02:37:00,VALID,915.836,VALID,0,VALID,99.7841,VALID,-0.0339617,VALID,19.1814,VALID,129,VALID,1.35084,
2005-05-20, 02:38:00,VALID,915.821,VALID,0,VALID,99.7027,VALID,-0.0339617,VALID,19.1816,VALID,120,VALID,0.9375,
2005-05-20, 02:39:00,VALID,915.811,VALID,0,VALID,99.5997,VALID,-0.0339617,VALID,19.1821,VALID,105,VALID,1.45722,
2005-05-20, 02:40:00,VALID,915.801,VALID,0,VALID,99.5832,VALID,-0.0339617,VALID,19.1558,VALID,96,VALID,1.14639,
2005-05-20, 02:41:00,VALID,915.783,VALID,0,VALID,99.5196,VALID,-0.0169808,VALID,19.1335,VALID,97,VALID,1.31473,
2005-05-20, 02:42:00,VALID,915.786,VALID,0,VALID,99.5399,VALID,-0.0169808,VALID,19.1079,VALID,101,VALID,1.27976,
2005-05-20, 02:43:00,VALID,915.789,VALID,0,VALID,99.4802,VALID,-0.0169808,VALID,19.0592,VALID,94,VALID,1.13281,
2005-05-20, 02:44:00,VALID,915.813,VALID,0,VALID,99.4001,VALID,-0.0509425,VALID,19.0304,VALID,97,VALID,1.29924,
2005-05-20, 02:45:00,VALID,915.796,VALID,0,VALID,99.2971,VALID,-0.0169808,VALID,18.9949,VALID,78,VALID,1.38796,
2005-05-20, 02:46:00,VALID,915.819,VALID,0,VALID,99.2551,VALID,-0.0169808,VALID,18.9718,VALID,68,VALID,1.07933,
2005-05-20, 02:47:00,VALID,915.824,VALID,0,VALID,99.1483,VALID,0,VALID,18.9462,VALID,84,VALID,1.0806,
2005-05-20, 02:48:00,VALID,915.815,VALID,0,VALID,99.1178,VALID,-0.0169808,VALID,18.9107,VALID,72,VALID,1.09642,
2005-05-20, 02:49:00,VALID,915.81,VALID,0,VALID,99.1279,VALID,-0.0509425,VALID,18.8724,VALID,81,VALID,1.14807,
2005-05-20, 02:50:00,VALID,915.804,VALID,0,VALID,99.1737,VALID,-0.0169808,VALID,18.8367,VALID,87,VALID,1.22283,
2005-05-20, 02:51:00,VALID,915.816,VALID,0,VALID,99.1635,VALID,-0.0169808,VALID,18.8171,VALID,86,VALID,1.15663,
2005-05-20, 02:52:00,VALID,915.836,VALID,0,VALID,99.1763,VALID,-0.0339617,VALID,18.8049,VALID,95,VALID,1.13104,
2005-05-20, 02:53:00,VALID,915.843,VALID,0,VALID,99.2971,VALID,0,VALID,18.7853,VALID,107,VALID,1.22148,
2005-05-20, 02:54:00,VALID,915.839,VALID,0,VALID,99.3912,VALID,-0.0509425,VALID,18.7624,VALID,118,VALID,1.36061,
2005-05-20, 02:55:00,VALID,915.841,VALID,0,VALID,99.3797,VALID,-0.0169808,VALID,18.7657,VALID,119,VALID,0.909489,
2005-05-20, 02:56:00,VALID,915.836,VALID,0,VALID,99.3797,VALID,-0.0679233,VALID,18.7631,VALID,131,VALID,0.703125,
2005-05-20, 02:57:00,VALID,915.827,VALID,0,VALID,99.4547,VALID,-0.0339617,VALID,18.7724,VALID,113,VALID,1.06504,
2005-05-20, 02:58:00,VALID,915.826,VALID,0,VALID,99.4433,VALID,0,VALID,18.7922,VALID,108,VALID,1.52671,
2005-05-20, 02:59:00,VALID,915.846,VALID,0,VALID,99.3568,VALID,-0.0679233,VALID,18.7984,VALID,116,VALID,1.40789,
2005-05-20, 03:00:00,VALID,915.838,VALID,0,VALID,99.2284,VALID,-0.0509425,VALID,18.8049,VALID,117,VALID,1.32882,
2005-05-20, 03:01:00,VALID,915.848,VALID,0,VALID,99.2106,VALID,-0.0339617,VALID,18.8046,VALID,124,VALID,1.13853,
2005-05-20, 03:02:00,VALID,915.846,VALID,0,VALID,99.175,VALID,-0.0509425,VALID,18.8272,VALID,130,VALID,1.03034,
2005-05-20, 03:03:00,VALID,915.826,VALID,0,VALID,99.1915,VALID,-0.0339617,VALID,18.8369,VALID,106,VALID,1.2907,
2005-05-20, 03:04:00,VALID,915.82,VALID,0,VALID,99.1508,VALID,-0.0339617,VALID,18.8337,VALID,114,VALID,1.12556,
2005-05-20, 03:05:00,VALID,915.813,VALID,0,VALID,99.2068,VALID,-0.0339617,VALID,18.8466,VALID,120,VALID,1.29554,
2005-05-20, 03:06:00,VALID,915.822,VALID,0,VALID,99.2449,VALID,-0.0509425,VALID,18.8468,VALID,124,VALID,1.13132,
2005-05-20, 03:07:00,VALID,915.814,VALID,0,VALID,99.203,VALID,-0.0169808,VALID,18.8665,VALID,121,VALID,1.11395,
2005-05-20, 03:08:00,VALID,915.826,VALID,0,VALID,99.175,VALID,-0.0169808,VALID,18.8694,VALID,126,VALID,1.25055,
2005-05-20, 03:09:00,VALID,915.828,VALID,0,VALID,99.208,VALID,-0.0169808,VALID,18.8856,VALID,131,VALID,1.54135,
2005-05-20, 03:10:00,VALID,915.834,VALID,0,VALID,99.0504,VALID,-0.0509425,VALID,18.902,VALID,115,VALID,1.21596,
2005-05-20, 03:11:00,VALID,915.826,VALID,0,VALID,99.0949,VALID,-0.0169808,VALID,18.9045,VALID,130,VALID,1.48977,
2005-05-20, 03:12:00,VALID,915.82,VALID,0,VALID,99.0237,VALID,-0.0169808,VALID,18.9276,VALID,130,VALID,1.34986,
2005-05-20, 03:13:00,VALID,915.807,VALID,0,VALID,98.913,VALID,-0.0339617,VALID,18.9536,VALID,132,VALID,1.64653,
2005-05-20, 03:14:00,VALID,915.793,VALID,0,VALID,98.8316,VALID,-0.0679233,VALID,18.9794,VALID,125,VALID,1.41939,
2005-05-20, 03:15:00,VALID,915.786,VALID,0,VALID,98.8266,VALID,0,VALID,18.9857,VALID,134,VALID,1.39595,
2005-05-20, 03:16:00,VALID,915.769,VALID,0,VALID,98.9779,VALID,-0.0169808,VALID,19.008,VALID,137,VALID,1.78571,
2005-05-20, 03:17:00,VALID,915.763,VALID,0,VALID,98.9092,VALID,0,VALID,19.0276,VALID,139,VALID,1.17913,
2005-05-20, 03:18:00,VALID,915.763,VALID,0,VALID,98.8533,VALID,-0.0339617,VALID,19.0403,VALID,138,VALID,1.52121,
2005-05-20, 03:19:00,VALID,915.761,VALID,0,VALID,98.7579,VALID,-0.0169808,VALID,19.0539,VALID,129,VALID,1.41371,
2005-05-20, 03:20:00,VALID,915.755,VALID,0,VALID,98.6613,VALID,0,VALID,19.0438,VALID,134,VALID,1.377,
2005-05-20, 03:21:00,VALID,915.751,VALID,0,VALID,98.6765,VALID,-0.0509425,VALID,19.0373,VALID,119,VALID,1.5071,
2005-05-20, 03:22:00,VALID,915.754,VALID,0,VALID,98.7643,VALID,-0.0169808,VALID,19.044,VALID,123,VALID,0.88228,
2005-05-20, 03:23:00,VALID,915.763,VALID,0,VALID,98.763,VALID,-0.0509425,VALID,19.0276,VALID,135,VALID,0.912016,
2005-05-20, 03:24:00,VALID,915.771,VALID,0,VALID,98.7681,VALID,-0.0509425,VALID,19.0311,VALID,108,VALID,0.712536,
2005-05-20, 03:25:00,VALID,915.778,VALID,0,VALID,98.6981,VALID,-0.0509425,VALID,19.0217,VALID,107,VALID,0.635045,
2005-05-20, 03:26:00,VALID,915.768,VALID,0,VALID,98.6473,VALID,-0.0339617,VALID,19.0085,VALID,95,VALID,0.694169,
2005-05-20, 03:27:00,VALID,915.747,VALID,0,VALID,98.5468,VALID,-0.0849042,VALID,18.9864,VALID,59,VALID,0.846294,
2005-05-20, 03:28:00,VALID,915.735,VALID,0,VALID,98.4743,VALID,-0.101885,VALID,18.9412,VALID,45,VALID,1.02113,
2005-05-20, 03:29:00,VALID,915.718,VALID,0,VALID,98.44,VALID,-0.0849042,VALID,18.8635,VALID,45,VALID,0.99043,
2005-05-20, 03:30:00,VALID,915.712,VALID,0,VALID,98.7248,VALID,-0.0679233,VALID,18.8309,VALID,45,VALID,1.16461,
2005-05-20, 03:31:00,VALID,915.709,VALID,0,VALID,99.0046,VALID,-0.0849042,VALID,18.8049,VALID,47,VALID,1.07101,
2005-05-20, 03:32:00,VALID,915.722,VALID,0,VALID,99.2767,VALID,-0.0509425,VALID,18.8118,VALID,55,VALID,1.09004,
2005-05-20, 03:33:00,VALID,915.712,VALID,0,VALID,99.4992,VALID,-0.0679233,VALID,18.8379,VALID,78,VALID,0.908794,
2005-05-20, 03:34:00,VALID,915.719,VALID,0,VALID,99.4992,VALID,-0.0509425,VALID,18.8503,VALID,103,VALID,0.731771,
2005-05-20, 03:35:00,VALID,915.727,VALID,0,VALID,99.4382,VALID,-0.0509425,VALID,18.854,VALID,113,VALID,0.783156,
2005-05-20, 03:36:00,VALID,915.743,VALID,0,VALID,99.4662,VALID,-0.0339617,VALID,18.863,VALID,111,VALID,0.436719,